Regional Weather Roundup
Issued by NWS State College, PA

Home | Current Version | Previous Version | Text Only | Print | Product List | Glossary On
Versions: 1 2 3 4 5 6 7 8 9 10 11 12 13 14 15 16 17 18 19 20 21 22 23 24 25 26 27 28 29 30 31 32 33 34 35 36 37 38 39 40 41 42 43 44 45 46 47 48 49 50
000
ASUS41 KCTP 042003
RWRCTP

REGIONAL WEATHER ROUNDUP
NATIONAL WEATHER SERVICE STATE COLLEGE PA
400 PM EDT SAT JUL 04 2015

Note: "fair" indicates few or no clouds below 12,000 feet with no
significant weather and/or obstructions to visibility.

* = STATION THAT DOES NOT REPORT PRECIPITATION /E.G. RAIN...SNOW...ETC/
    THUNDER OR FOG.

PAZ002>004-007>009-013>016-020>023-029>032-042100-
WESTERN PENNSYLVANIA

CITY           SKY/WX    TMP DP  RH WIND       PRES   REMARKS
ERIE           SUNNY     72  50  45 NW6       30.00R
MEADVILLE      SUNNY     75  50  41 NW9       30.01R
FRANKLIN*      SUNNY     77  55  47 NW7       30.00R
NEW CASTLE     FAIR      79  57  46 N5        29.99S
BEAVER COUNTY  NOT AVBL
BUTLER*        SUNNY     79  61  53 NW8       30.00R
PITTSBURGH INT MOSUNNY   80  54  40 NW12      29.97S
PITTSBURGH     SUNNY     76  58  53 VRB6      29.96S
INDIANA*       MOSUNNY   77  64  65 VRB6      29.99S
LATROBE        PTSUNNY   77  66  69 W6        29.97S
WASHINGTON CO* NOT AVBL
$$

PAZ004>006-010>012-017>019-024>028-033>037-041-042-045-046-049>053-042100-
CENTRAL PENNSYLVANIA

CITY           SKY/WX    TMP DP  RH WIND       PRES   REMARKS
BRADFORD       PTSUNNY   77  59  53 NW13      29.98R
DUBOIS         LGT RAIN  73  64  73 CALM      29.96S
CLEARFIELD     SUNNY     73  63  70 NE3       29.97F
JOHNSTOWN      MOSUNNY   74  60  61 NW10      30.00R
ALTOONA        CLOUDY    71  65  81 E7        29.98S
STATE COLLEGE  CLOUDY    66  63  88 CALM      29.98S FOG
WILLIAMSPORT   CLOUDY    68  60  75 CALM      29.96R
SELINSGROVE    CLOUDY    68  64  87 N3        29.97S
FT INDIANTOWN  CLOUDY    67  63  87 VRB1      29.95S
CAPITAL CITY   CLOUDY    69  62  78 E3        29.95S
HARRISBURG     CLOUDY    70  63  78 CALM      29.94S
YORK           CLOUDY    68  64  87 E5        29.95S
$$

PAZ038>040-043-044-047-048-054-055-060>062-067>071-042100-
EASTERN PENNSYLVANIA

CITY           SKY/WX    TMP DP  RH WIND       PRES   REMARKS
SCRANTON       CLOUDY    67  62  84 NE6       29.98S HAZE
MOUNT POCONO   CLOUDY    64  55  72 E6        30.01R
ALLENTOWN      CLOUDY    74  59  59 E6        29.95F
QUAKERTOWN*    MOCLDY    72  63  73 E5        29.96S
READING        CLOUDY    72  59  63 E3        29.93F
LANCASTER      LGT RAIN  70  63  78 NE5       29.94S
COATESVILLE    CLOUDY    72  64  78 E6        29.95S
POTTSTOWN      CLOUDY    71  63  75 NE7       29.95F
BLUE BELL      PTSUNNY   73  63  68 E5        29.93S
DOYLESTOWN     PTSUNNY   72  61  68 VRB5      29.94F
WILLOW GROVE   NOT AVBL
NORTH PHILA    CLOUDY    75  58  55 NE8       29.94F
PHILADELPHIA   PTSUNNY   75  61  61 NE12      29.92F
$$



USA.gov is the U.S. government's official web portal to all federal, state and local government web resources and services.